Glencoe, MN

3:36 PM CST on December 14, 2019 (GMT -0600)
Glencoe Municipal

Weather History for KGYL - October, 2019

Change the Weather History Date:

Monday, October 28, 2019

  Actual Average (WUND) Record (WUND)
Temperature  
Mean Temperature 33 °F -  
Max Temperature 37 °F - - (-1)
Min Temperature 29 °F - - (-1)
Degree Days  
Heating Degree Days 32    
Moisture  
Dew Point 20 °F    
Average Humidity 61    
Maximum Humidity 78    
Minimum Humidity 38    
Precipitation  
Precipitation 0.00 in - - ()
Sea Level Pressure  
Sea Level Pressure 30.09 in    
Wind  
Wind Speed 6 mph (West)    
Max Wind Speed 12 mph    
Max Gust Speed 9 mph    
Visibility 10 miles    
Events      
Averages and records for this station are not official NWS values.
T = Trace of Precipitation, MM = Missing Value Source: NWS Daily Summary

Daily Weather History Graph

Daily Weather History Graph

Search for Another Location

Airport or City:

Astronomy

Oct. 28, 2019 Rise Set
Actual Time 7:48 AM CDT 6:10 PM CDT
Civil Twilight 7:18 AM CDT 6:41 PM CDT
Nautical Twilight 6:44 AM CDT 7:15 PM CDT
Astronomical Twilight 6:10 AM CDT 7:49 PM CDT
Moon 8:10 AM CDT (10/28) 6:56 PM CDT (10/28)
Length of Visible Light 11h 22m
Length of Day
10h 22m
New Moon, 0% of the Moon is Illuminated
Oct 28
New Moon
Nov 4
First Quarter
Nov 12
Full
Nov 19
Last Quarter
Nov 26
New

Hourly Weather History & Observations

Time (CDT) Temp. Windchill Dew Point Humidity Pressure Visibility Wind Dir Wind Speed Gust Speed Precip Events Conditions
12:15 AM 31.6 °F 25.1 °F 23.7 °F 73% 30.10 in 7.0 mi West 6.9 mph - N/A   Clear
12:16 AM 31.6 °F 24.4 °F 23.7 °F 73% 30.10 in 7.0 mi West 8.1 mph - N/A   Clear
12:38 AM 31.6 °F 25.1 °F 23.0 °F 70% 30.10 in 10.0 mi West 6.9 mph - N/A   Clear
12:56 AM 32.0 °F 26.4 °F 23.0 °F 69% 30.11 in 10.0 mi West 5.8 mph - N/A   Clear
1:15 AM 32.0 °F 26.4 °F 22.6 °F 68% 30.10 in 10.0 mi West 5.8 mph 9.2 mph N/A   Mostly Cloudy
1:16 AM 32.0 °F 25.6 °F 22.6 °F 68% 30.10 in 10.0 mi West 6.9 mph - N/A   Mostly Cloudy
1:39 AM 32.0 °F 25.6 °F 22.1 °F 67% 30.10 in 10.0 mi West 6.9 mph - N/A   Scattered Clouds
1:56 AM 31.5 °F 24.2 °F 22.1 °F 68% 30.11 in 10.0 mi West 8.1 mph - N/A   Clear
2:15 AM 30.7 °F 23.3 °F 22.3 °F 71% 30.10 in 10.0 mi West 8.1 mph - N/A   Clear
2:16 AM 30.6 °F 23.8 °F 22.3 °F 71% 30.10 in 10.0 mi West 6.9 mph - N/A   Clear
2:35 AM 30.0 °F 23.2 °F 22.6 °F 74% 30.10 in 10.0 mi West 6.9 mph - N/A   Clear
2:39 AM 30.0 °F 24.1 °F 22.6 °F 74% 30.11 in 10.0 mi West 5.8 mph - N/A   Clear
2:55 AM 30.2 °F 23.4 °F 22.3 °F 72% 30.11 in 10.0 mi West 6.9 mph - N/A   Scattered Clouds
3:15 AM 30.6 °F 23.1 °F 21.7 °F 70% 30.10 in 10.0 mi West 8.1 mph - N/A   Scattered Clouds
3:16 AM 30.6 °F 23.8 °F 21.7 °F 70% 30.10 in 10.0 mi West 6.9 mph - N/A   Mostly Cloudy
3:38 AM 30.2 °F 24.3 °F 21.2 °F 69% 30.11 in 10.0 mi West 5.8 mph - N/A   Scattered Clouds
3:55 AM 29.5 °F 25.9 °F 21.0 °F 71% 30.10 in 10.0 mi West 3.5 mph - N/A   Scattered Clouds
3:56 AM 29.5 °F 25.9 °F 21.0 °F 71% 30.10 in 10.0 mi West 3.5 mph - N/A   Scattered Clouds
4:15 AM 30.2 °F 26.7 °F 21.2 °F 69% 30.10 in 10.0 mi West 3.5 mph - N/A   Mostly Cloudy
4:20 AM 30.2 °F 26.7 °F 21.2 °F 69% 30.10 in 10.0 mi WSW 3.5 mph - N/A   Mostly Cloudy
4:36 AM 30.6 °F 27.1 °F 21.4 °F 69% 30.10 in 10.0 mi West 3.5 mph - N/A   Overcast
4:55 AM 30.9 °F 26.2 °F 21.9 °F 69% 30.09 in 10.0 mi West 4.6 mph - N/A   Overcast
4:56 AM 30.9 °F 26.2 °F 21.9 °F 69% 30.09 in 10.0 mi West 4.6 mph - N/A   Overcast
5:18 AM 31.1 °F 25.4 °F 21.9 °F 69% 30.08 in 10.0 mi West 5.8 mph - N/A   Overcast
5:35 AM 31.1 °F 26.4 °F 22.1 °F 69% 30.08 in 10.0 mi West 4.6 mph - N/A   Overcast
5:36 AM 31.1 °F 25.4 °F 22.1 °F 69% 30.08 in 10.0 mi West 5.8 mph - N/A   Overcast
5:55 AM 31.5 °F 24.9 °F 21.4 °F 66% 30.09 in 10.0 mi West 6.9 mph - N/A   Overcast
5:56 AM 31.5 °F 25.8 °F 21.4 °F 66% 30.09 in 10.0 mi West 5.8 mph - N/A   Overcast
6:15 AM 31.5 °F 24.2 °F 19.9 °F 62% 30.09 in 10.0 mi West 8.1 mph - N/A   Overcast
6:19 AM 31.5 °F 24.2 °F 19.4 °F 61% 30.09 in 10.0 mi West 8.1 mph - N/A   Overcast
6:36 AM 31.1 °F 24.5 °F 19.4 °F 62% 30.08 in 10.0 mi West 6.9 mph - N/A   Overcast
6:55 AM 31.1 °F 26.4 °F 20.7 °F 65% 30.08 in 10.0 mi West 4.6 mph - N/A   Overcast
7:18 AM 31.1 °F 26.4 °F 20.3 °F 64% 30.08 in 10.0 mi West 4.6 mph - N/A   Overcast
7:36 AM 30.9 °F 27.5 °F 20.3 °F 65% 30.09 in 10.0 mi WSW 3.5 mph - N/A   Overcast
7:55 AM 30.4 °F 26.9 °F 21.0 °F 68% 30.10 in 10.0 mi WSW 3.5 mph - N/A   Overcast
7:56 AM 30.4 °F 26.9 °F 21.0 °F 68% 30.10 in 10.0 mi WSW 3.5 mph - N/A   Overcast
8:31 AM - - - N/A% 30.09 in 10.0 mi WSW 3.5 mph - N/A   Mostly Cloudy
8:36 AM 29.7 °F - 21.6 °F 72% 30.10 in 10.0 mi Calm Calm - N/A   Mostly Cloudy
8:55 AM 29.7 °F 24.7 °F 21.7 °F 72% 30.10 in 7.0 mi SW 4.6 mph - N/A   Mostly Cloudy
9:15 AM 30.2 °F 23.4 °F 21.2 °F 69% 30.11 in 10.0 mi WSW 6.9 mph - N/A   Scattered Clouds
9:18 AM 30.2 °F 23.4 °F 21.0 °F 69% 30.11 in 10.0 mi WSW 6.9 mph - N/A   Scattered Clouds
9:38 AM 30.9 °F 24.3 °F 20.1 °F 64% 30.12 in 10.0 mi West 6.9 mph - N/A   Clear
9:56 AM 31.3 °F 24.7 °F 20.7 °F 65% 30.13 in 10.0 mi WSW 6.9 mph - N/A   Clear
10:15 AM 32.0 °F 25.6 °F 20.3 °F 62% - 10.0 mi SW 6.9 mph - N/A   Clear
10:36 AM 32.4 °F 26.0 °F 19.4 °F 59% 30.11 in 10.0 mi West 6.9 mph - N/A   Clear
10:59 AM 32.0 °F 26.4 °F 17.6 °F 55% 30.11 in 10.0 mi West 5.8 mph - N/A   Scattered Clouds
11:14 AM - - - N/A% 30.10 in 10.0 mi WSW 8.1 mph - N/A   Scattered Clouds
11:15 AM - - - N/A% 30.10 in 10.0 mi WSW 9.2 mph - N/A   Scattered Clouds
11:16 AM 33.1 °F 24.9 °F 17.1 °F 52% 30.10 in 10.0 mi West 10.4 mph - N/A   Scattered Clouds
11:38 AM 33.3 °F 24.6 °F 16.9 °F 51% 30.10 in 10.0 mi WNW 11.5 mph - N/A   Scattered Clouds
11:55 AM 34.3 °F 25.9 °F 16.5 °F 48% 30.10 in 10.0 mi West 11.5 mph - N/A   Scattered Clouds
12:15 PM 34.2 °F 26.2 °F 16.0 °F 47% 30.10 in 7.0 mi WSW 10.4 mph - N/A   Clear
12:38 PM 34.7 °F 26.9 °F 15.3 °F 45% 30.10 in 7.0 mi West 10.4 mph - N/A   Clear
12:55 PM 34.3 °F 28.4 °F 16.2 °F 47% 30.09 in 10.0 mi West 6.9 mph - N/A   Scattered Clouds
12:56 PM 34.3 °F 28.4 °F 16.2 °F 47% 30.09 in 10.0 mi WSW 6.9 mph - N/A   Scattered Clouds
1:15 PM 34.9 °F 27.7 °F 15.8 °F 46% 30.09 in 10.0 mi WSW 9.2 mph - N/A   Clear
1:35 PM 36.0 °F 29.6 °F 15.4 °F 43% 30.08 in 10.0 mi West 8.1 mph - N/A   Clear
1:48 PM 35.6 °F 29.2 °F 14.5 °F 42% 30.08 in 10.0 mi WSW 8.1 mph - N/A   Clear
2:13 PM - - - N/A% 30.08 in 10.0 mi WSW 8.1 mph - N/A   Scattered Clouds
2:15 PM - - - N/A% 30.08 in 10.0 mi SW 6.9 mph - N/A   Scattered Clouds
2:38 PM 35.2 °F 28.8 °F 14.0 °F 42% 30.07 in 10.0 mi WSW 8.1 mph - N/A   Scattered Clouds
2:55 PM 37.4 °F 33.8 °F 14.5 °F 39% 30.07 in 10.0 mi WSW 4.6 mph - N/A   Clear
2:56 PM 37.2 °F 34.7 °F 14.4 °F 39% 30.07 in 10.0 mi WSW 3.5 mph - N/A   Clear
3:18 PM 36.9 °F 33.1 °F 13.5 °F 38% 30.06 in 10.0 mi WSW 4.6 mph - N/A   Clear
3:36 PM 36.1 °F 29.9 °F 14.4 °F 41% 30.06 in 10.0 mi WSW 8.1 mph - N/A   Clear
3:55 PM 36.0 °F 32.1 °F 15.6 °F 44% 30.05 in 10.0 mi SSW 4.6 mph - N/A   Clear
3:56 PM 36.0 °F 32.1 °F 16.0 °F 44% 30.06 in 10.0 mi SW 4.6 mph - N/A   Clear
4:18 PM 35.6 °F 29.9 °F 15.3 °F 43% 30.05 in 10.0 mi West 6.9 mph - N/A   Clear
4:35 PM 35.6 °F 30.7 °F 16.3 °F 46% 30.05 in 10.0 mi WSW 5.8 mph - N/A   Scattered Clouds
4:36 PM 35.6 °F 30.7 °F 16.3 °F 46% 30.05 in 10.0 mi WSW 5.8 mph - N/A   Scattered Clouds
4:55 PM 35.1 °F 29.3 °F 16.9 °F 48% 30.06 in 10.0 mi West 6.9 mph - N/A   Scattered Clouds
5:00 PM 35.1 °F 30.1 °F 16.5 °F 47% 30.06 in 10.0 mi WSW 5.8 mph - N/A   Scattered Clouds
5:17 PM 34.7 °F 30.6 °F 16.9 °F 48% 30.07 in 10.0 mi WSW 4.6 mph - N/A   Scattered Clouds
5:35 PM 34.7 °F 29.6 °F 18.0 °F 51% 30.07 in 10.0 mi West 5.8 mph - N/A   Scattered Clouds
5:36 PM 34.7 °F 29.6 °F 18.0 °F 51% 30.07 in 10.0 mi West 5.8 mph - N/A   Scattered Clouds
5:55 PM 34.2 °F 30.0 °F 18.1 °F 52% 30.07 in 10.0 mi West 4.6 mph - N/A   Mostly Cloudy
5:56 PM 34.2 °F 29.0 °F 18.1 °F 52% 30.07 in 10.0 mi West 5.8 mph - N/A   Mostly Cloudy
6:15 PM - - - N/A% 30.07 in 10.0 mi West 4.6 mph - N/A   Mostly Cloudy
6:16 PM 34.0 °F 31.0 °F 18.1 °F 52% 30.07 in 10.0 mi West 3.5 mph - N/A   Scattered Clouds
6:17 PM 33.8 °F 30.8 °F 18.1 °F 53% 30.07 in 10.0 mi West 3.5 mph - N/A   Scattered Clouds
6:39 PM 33.6 °F 28.4 °F 18.5 °F 54% 30.08 in 10.0 mi West 5.8 mph - N/A   Scattered Clouds
6:56 PM 33.3 °F 30.2 °F 18.3 °F 54% 30.09 in 10.0 mi West 3.5 mph - N/A   Scattered Clouds
7:15 PM 32.9 °F - 18.9 °F 56% 30.09 in 10.0 mi Calm Calm - N/A   Clear
7:16 PM 33.1 °F - 18.9 °F 56% 30.09 in 10.0 mi Calm Calm - N/A   Clear
7:38 PM 32.9 °F - 19.8 °F 59% 30.09 in 10.0 mi Calm Calm - N/A   Scattered Clouds
7:56 PM 32.0 °F - 22.5 °F 68% 30.09 in 10.0 mi Calm Calm - N/A   Clear
8:15 PM 32.4 °F - 20.7 °F 62% 30.09 in 10.0 mi Calm Calm - N/A   Clear
8:16 PM 32.4 °F - 20.8 °F 63% 30.09 in 10.0 mi Calm Calm - N/A   Clear
8:39 PM 32.0 °F - 21.9 °F 66% 30.09 in 10.0 mi Calm Calm - N/A   Clear
8:56 PM 31.8 °F - 22.8 °F 69% 30.09 in 10.0 mi Calm Calm - N/A   Clear
9:15 PM 32.0 °F - 23.0 °F 69% 30.09 in 10.0 mi Calm Calm - N/A   Clear
9:38 PM 31.8 °F - 23.4 °F 71% 30.09 in 10.0 mi Calm Calm - N/A   Clear
9:55 PM 31.6 °F - 25.2 °F 77% 30.08 in 10.0 mi Calm Calm - N/A   Clear
10:15 PM 31.6 °F - 23.2 °F 71% 30.09 in 10.0 mi Calm Calm - N/A   Scattered Clouds
10:16 PM 31.6 °F - 23.0 °F 70% 30.09 in 10.0 mi Calm Calm - N/A   Scattered Clouds
10:56 PM 31.5 °F - 24.4 °F 75% 30.10 in 10.0 mi Calm Calm - N/A   Overcast
11:15 PM 31.3 °F - 25.0 °F 77% 30.11 in 10.0 mi Calm Calm - N/A   Overcast
11:16 PM 31.3 °F - 25.2 °F 78% 30.11 in 10.0 mi Calm Calm - N/A   Overcast
11:38 PM 31.1 °F 27.7 °F 25.0 °F 78% 30.12 in 10.0 mi South 3.5 mph - N/A   Overcast
11:55 PM 31.1 °F - 23.9 °F 75% 30.12 in 10.0 mi Calm Calm - N/A   Overcast